Terug naar catalogus

BILSAT 1

ActiefWetenschapSSO
NORAD 27943·PAYLOAD·🇹🇷 Turkey

Gelanceerd Sep 27, 2003 vanaf Plesetsk Cosmodrome

Loading…

Volgende Passages (komende 24 uur)

TLE

VersSource: Space-Track

Epoch: Sep 13, 2026, 22:21 UTC

1 27943U 03042E   26256.93180664  .00000229  00000-0  49902-4 0  9993
2 27943  98.4055  69.3248 0012048  74.4873 285.7660 14.67109632227136

Volg BILSAT 1 in realtime met AllMySat

Download on the App Store